Weather History for Beaver Island, MI

Change the Weather History Date:

Wednesday, October 17, 2012

  Actual Average Record
Temperature  
Mean Temperature 16 °C -  
Max Temperature 21 °C 12 °C 24 °C (1968)
Min Temperature 11 °C 3 °C -4 °C (2002)
Degree Days  
Heating Degree Days 4    
Growing Degree Days 10 (Base 50)    
Moisture  
Dew Point 9 °C    
Average Humidity 67    
Maximum Humidity 81    
Minimum Humidity 50    
Precipitation  
Precipitation 0.00 mm - - ()
Sea Level Pressure  
Sea Level Pressure 998 hPa    
Wind  
Wind Speed 13 km/h (SE)    
Max Wind Speed 21 km/h    
Max Gust Speed 35 km/h    
Visibility 16 kilometers    
Events Rain    
Averages and records for this station are not official NWS values.
T = Trace of Precipitation, MM = Missing Value Source: NWS Daily Summary

Daily Weather History Graph

Daily Weather History Graph

Search for Another Location

Airport:

Trip Planner

Search our weather history database for the weather conditions in past years. The results will help you decide how hot, cold, wet, or windy it might be!

Date:

Astronomy

Oct. 17, 2012 Rise Set
Actual Time 8:02 AM EDT 6:52 PM EDT
Civil Twilight 7:32 AM EDT 7:22 PM EDT
Nautical Twilight 6:57 AM EDT 7:56 PM EDT
Astronomical Twilight 6:23 AM EDT 8:30 PM EDT
Moon 10:45 AM EDT (10/17) 8:17 PM EDT (10/17)
Length of Visible Light 11h 50m
Length of Day
10h 50m
Waxing Crescent, 7% of the Moon is Illuminated
Oct 17
Waxing Crescent
Oct 21
First Quarter
Oct 29
Full
Nov 6
Last Quarter
Nov 13
New

Hourly Weather History & Observations

Time (EDT) Temp. Dew Point Humidity Pressure Visibility Wind Dir Wind Speed Gust Speed Precip Events Conditions
12:15 AM 12.5 °C 6.2 °C 66% 1002.3 hPa 16.1 km SSE 16.7 km/h / 4.6 m/s 27.8 km/h / 7.7 m/s N/A   Scattered Clouds
12:35 AM 12.5 °C 6.0 °C 65% 1001.9 hPa 16.1 km SSE 13.0 km/h / 3.6 m/s 25.9 km/h / 7.2 m/s N/A   Overcast
12:55 AM 11.8 °C 6.6 °C 71% 1001.9 hPa 16.1 km SSE 11.1 km/h / 3.1 m/s - N/A   Overcast
1:15 AM 12.0 °C 6.6 °C 70% 1001.6 hPa 16.1 km SSE 11.1 km/h / 3.1 m/s - N/A   Overcast
1:35 AM 12.5 °C 6.7 °C 68% 1001.6 hPa 16.1 km SSE 14.8 km/h / 4.1 m/s - N/A   Overcast
1:55 AM 12.5 °C 6.7 °C 68% 1001.2 hPa 16.1 km SE 18.5 km/h / 5.1 m/s 27.8 km/h / 7.7 m/s N/A   Overcast
2:15 AM 12.6 °C 6.5 °C 66% 1000.9 hPa 16.1 km SE 20.4 km/h / 5.7 m/s 29.6 km/h / 8.2 m/s N/A   Mostly Cloudy
2:35 AM 12.6 °C 6.7 °C 67% 1001.2 hPa 16.1 km SE 14.8 km/h / 4.1 m/s - N/A   Scattered Clouds
2:55 AM 12.5 °C 6.8 °C 68% 1000.9 hPa 16.1 km SSE 16.7 km/h / 4.6 m/s - N/A   Mostly Cloudy
3:15 AM 12.6 °C 6.8 °C 68% 1000.9 hPa 16.1 km SE 14.8 km/h / 4.1 m/s - N/A   Overcast
3:35 AM 12.5 °C 6.7 °C 68% 1000.6 hPa 16.1 km SE 14.8 km/h / 4.1 m/s - N/A   Mostly Cloudy
3:55 AM 12.6 °C 7.0 °C 69% 1000.6 hPa 16.1 km SSE 13.0 km/h / 3.6 m/s - N/A   Overcast
4:15 AM 12.7 °C 7.0 °C 68% 1000.2 hPa 16.1 km SSE 9.3 km/h / 2.6 m/s - N/A   Overcast
4:35 AM 12.8 °C 7.0 °C 68% 999.9 hPa 16.1 km SE 14.8 km/h / 4.1 m/s - N/A   Overcast
4:55 AM 12.8 °C 7.0 °C 68% 999.9 hPa 16.1 km SE 16.7 km/h / 4.6 m/s - N/A   Overcast
5:15 AM 12.5 °C 7.0 °C 69% 999.9 hPa 16.1 km SE 11.1 km/h / 3.1 m/s - N/A   Mostly Cloudy
5:35 AM 12.0 °C 6.8 °C 71% 999.9 hPa 16.1 km East 13.0 km/h / 3.6 m/s - N/A   Scattered Clouds
5:55 AM 11.5 °C 7.0 °C 74% 999.9 hPa 16.1 km ESE 13.0 km/h / 3.6 m/s - N/A   Scattered Clouds
6:15 AM 11.7 °C 7.1 °C 73% 999.9 hPa 16.1 km ESE 14.8 km/h / 4.1 m/s - N/A   Clear
6:35 AM 11.7 °C 7.1 °C 73% 999.5 hPa 16.1 km ESE 13.0 km/h / 3.6 m/s - N/A   Clear
6:55 AM 12.0 °C 7.1 °C 72% 999.5 hPa 16.1 km ESE 13.0 km/h / 3.6 m/s - N/A   Scattered Clouds
7:15 AM 11.7 °C 7.3 °C 74% 999.9 hPa 16.1 km ESE 11.1 km/h / 3.1 m/s - N/A   Scattered Clouds
7:55 AM 12.0 °C 7.5 °C 74% 998.9 hPa 16.1 km ESE 14.8 km/h / 4.1 m/s - N/A   Mostly Cloudy
8:15 AM 11.8 °C 7.5 °C 75% 998.9 hPa 16.1 km SE 13.0 km/h / 3.6 m/s - N/A   Clear
8:35 AM 12.0 °C 7.7 °C 75% 998.9 hPa 16.1 km ESE 14.8 km/h / 4.1 m/s - N/A   Clear
8:55 AM 12.5 °C 8.0 °C 74% 998.9 hPa 16.1 km SE 13.0 km/h / 3.6 m/s - N/A   Clear
9:15 AM 13.1 °C 8.3 °C 73% 998.9 hPa 16.1 km SE 14.8 km/h / 4.1 m/s - N/A   Clear
9:35 AM 13.8 °C 8.6 °C 71% 998.9 hPa 16.1 km SE 14.8 km/h / 4.1 m/s - N/A   Clear
9:55 AM 14.1 °C 8.6 °C 70% 998.9 hPa 16.1 km SE 13.0 km/h / 3.6 m/s - N/A   Clear
10:15 AM 14.6 °C 9.0 °C 69% 998.9 hPa 16.1 km SE 14.8 km/h / 4.1 m/s - N/A   Clear
10:35 AM 15.2 °C 9.3 °C 68% 998.5 hPa 16.1 km SE 16.7 km/h / 4.6 m/s 27.8 km/h / 7.7 m/s N/A   Clear
10:55 AM 15.5 °C 9.3 °C 67% 998.5 hPa 16.1 km SE 9.3 km/h / 2.6 m/s 25.9 km/h / 7.2 m/s N/A   Clear
11:15 AM 16.2 °C 9.5 °C 65% 998.2 hPa 16.1 km SSE 13.0 km/h / 3.6 m/s 25.9 km/h / 7.2 m/s N/A   Clear
11:35 AM 17.2 °C 9.9 °C 62% 998.2 hPa 16.1 km SE 16.7 km/h / 4.6 m/s - N/A   Clear
11:55 AM 17.2 °C 9.8 °C 62% 997.9 hPa 16.1 km SSE 16.7 km/h / 4.6 m/s 25.9 km/h / 7.2 m/s N/A   Clear
12:15 PM 17.2 °C 9.9 °C 62% 997.9 hPa 16.1 km SSE 14.8 km/h / 4.1 m/s 29.6 km/h / 8.2 m/s N/A   Clear
12:35 PM 17.7 °C 10.0 °C 61% 997.9 hPa 16.1 km SSE 18.5 km/h / 5.1 m/s 27.8 km/h / 7.7 m/s N/A   Clear
12:55 PM 18.5 °C 10.1 °C 58% 997.9 hPa 16.1 km SSE 16.7 km/h / 4.6 m/s 27.8 km/h / 7.7 m/s N/A   Clear
1:15 PM 19.1 °C 10.2 °C 56% 997.5 hPa 16.1 km South 13.0 km/h / 3.6 m/s 29.6 km/h / 8.2 m/s N/A   Clear
1:35 PM 19.4 °C 10.4 °C 56% 997.5 hPa 16.1 km SSE 18.5 km/h / 5.1 m/s 27.8 km/h / 7.7 m/s N/A   Clear
1:55 PM 20.1 °C 10.5 °C 54% 997.2 hPa 16.1 km SSE 16.7 km/h / 4.6 m/s - N/A   Clear
2:15 PM 20.6 °C 10.6 °C 53% 997.2 hPa 16.1 km South 13.0 km/h / 3.6 m/s - N/A   Clear
2:35 PM 20.8 °C 10.4 °C 51% 997.2 hPa 16.1 km SSW 16.7 km/h / 4.6 m/s - N/A   Clear
2:55 PM 20.8 °C 10.3 °C 51% 997.2 hPa 16.1 km South 9.3 km/h / 2.6 m/s 27.8 km/h / 7.7 m/s N/A   Scattered Clouds
3:15 PM 20.8 °C 10.1 °C 50% 996.8 hPa 16.1 km SSE 14.8 km/h / 4.1 m/s - N/A   Scattered Clouds
3:35 PM 20.6 °C 10.3 °C 52% 996.8 hPa 16.1 km South 13.0 km/h / 3.6 m/s - N/A   Clear
3:55 PM 19.0 °C 11.5 °C 62% 996.5 hPa 16.1 km WNW 9.3 km/h / 2.6 m/s - N/A   Clear
4:15 PM 20.1 °C 11.6 °C 58% 996.5 hPa 16.1 km West 9.3 km/h / 2.6 m/s - N/A   Scattered Clouds
4:35 PM 19.6 °C 11.5 °C 59% 996.5 hPa 16.1 km NNW 7.4 km/h / 2.1 m/s - N/A   Scattered Clouds
4:55 PM 18.1 °C 11.1 °C 64% 996.2 hPa 16.1 km NW 7.4 km/h / 2.1 m/s - N/A   Scattered Clouds
5:15 PM 18.5 °C 11.6 °C 64% 996.2 hPa 16.1 km NE 7.4 km/h / 2.1 m/s - N/A   Clear
5:35 PM 16.5 °C 11.1 °C 70% 996.2 hPa 16.1 km NNE 7.4 km/h / 2.1 m/s - N/A   Clear
5:55 PM 16.3 °C 10.8 °C 70% 996.5 hPa 16.1 km East 9.3 km/h / 2.6 m/s - N/A   Mostly Cloudy
6:15 PM 15.5 °C 11.0 °C 75% 996.2 hPa 16.1 km East 9.3 km/h / 2.6 m/s - N/A   Mostly Cloudy
6:35 PM 15.2 °C 11.2 °C 77% 996.5 hPa 16.1 km East 7.4 km/h / 2.1 m/s - N/A   Overcast
6:55 PM 14.5 °C 11.0 °C 80% 996.5 hPa 16.1 km Calm Calm - N/A   Overcast
7:15 PM 14.1 °C 10.9 °C 81% 996.5 hPa 16.1 km Calm Calm - N/A   Overcast
7:55 PM 18.0 °C 10.5 °C 62% 996.5 hPa 16.1 km South 7.4 km/h / 2.1 m/s - N/A   Overcast
8:15 PM 18.4 °C 10.2 °C 59% 996.5 hPa 16.1 km South 9.3 km/h / 2.6 m/s - N/A   Overcast
8:35 PM 18.2 °C 10.2 °C 60% 996.5 hPa 16.1 km South 9.3 km/h / 2.6 m/s - N/A   Overcast
8:55 PM 16.6 °C 11.4 °C 71% 996.5 hPa 16.1 km SSE 5.6 km/h / 1.5 m/s - N/A   Overcast
9:15 PM 16.2 °C 11.5 °C 74% 996.5 hPa 16.1 km SSE 5.6 km/h / 1.5 m/s - N/A   Overcast
9:35 PM 16.5 °C 11.5 °C 72% 996.2 hPa 16.1 km SE 7.4 km/h / 2.1 m/s - N/A   Overcast
9:55 PM 16.6 °C 11.5 °C 72% 996.2 hPa 16.1 km SE 5.6 km/h / 1.5 m/s - N/A   Overcast
10:15 PM 16.2 °C 11.2 °C 72% 996.2 hPa 16.1 km Calm Calm - N/A   Overcast
10:35 PM 15.5 °C 11.3 °C 76% 996.2 hPa 16.1 km East 5.6 km/h / 1.5 m/s - N/A   Overcast
10:55 PM 15.5 °C 11.4 °C 77% 996.2 hPa 16.1 km ESE 7.4 km/h / 2.1 m/s - N/A   Overcast
11:15 PM 16.7 °C 11.1 °C 70% 996.2 hPa 16.1 km SE 16.7 km/h / 4.6 m/s - N/A Rain Light Rain
11:35 PM 16.8 °C 11.5 °C 71% 995.8 hPa 16.1 km SSE 16.7 km/h / 4.6 m/s 35.2 km/h / 9.8 m/s N/A   Overcast
11:55 PM 15.9 °C 12.0 °C 78% 995.8 hPa 16.1 km SSE 16.7 km/h / 4.6 m/s 31.5 km/h / 8.7 m/s N/A Rain Light Rain